• In Romania
  • List of Countries
  • For 7 days
  • Water Temperature
  • Satellite Maps
  • Weather Map
  • Weather Widgets
  • user-avatar
    Login

    Hourly Weather Samochevka

    Today, 24 September, Monday

    Time Temperature Precipitation Wind Pressure Humidity
    00:00 +7°C° 0 mm 4 mps 740 mmHg 87%
    01:00 +8°C° 0 mm 3 mps 740 mmHg 89%
    02:00 +8°C° 0 mm 3 mps 740 mmHg 90%
    03:00 +7°C° 0 mm 3 mps 740 mmHg 93%
    04:00 +5°C° 0 mm 3 mps 740 mmHg 94%
    05:00 +5°C° 0 mm 3 mps 740 mmHg 94%
    06:00 +5°C° 0 mm 3 mps 740 mmHg 94%
    07:00 +7°C° 0 mm 3 mps 740 mmHg 90%
    08:00 +9°C° 0 mm 3 mps 740 mmHg 85%
    09:00 +10°C° 0 mm 3 mps 741 mmHg 79%
    10:00 +11°C° 0 mm 4 mps 740 mmHg 74%
    11:00 +12°C° 0 mm 5 mps 740 mmHg 69%
    12:00 +13°C° 0 mm 6 mps 740 mmHg 63%
    13:00 +11°C° 0.2 mm 6 mps 739 mmHg 66%
    14:00 +11°C° 0.2 mm 6 mps 739 mmHg 68%
    15:00 +10°C° 0.2 mm 6 mps 738 mmHg 70%
    16:00 +10°C° 1 mm 7 mps 737 mmHg 74%
    17:00 +9°C° 1 mm 7 mps 737 mmHg 78%
    18:00 +9°C° 1 mm 8 mps 736 mmHg 83%
    19:00 +9°C° 1.2 mm 8 mps 735 mmHg 83%
    20:00 +10°C° 1.2 mm 9 mps 734 mmHg 83%
    21:00 +10°C° 1.2 mm 9 mps 733 mmHg 84%
    22:00 +10°C° 0.4 mm 9 mps 732 mmHg 85%
    23:00 +10°C° 0.4 mm 9 mps 732 mmHg 86%

    Tomorrow, 25 September, Tuesday

    Time Temperature Precipitation Wind Pressure Humidity
    00:00 +10°C° 0.4 mm 8 mps 731 mmHg 87%
    01:00 +9°C° 0.1 mm 8 mps 731 mmHg 86%
    02:00 +8°C° 0.1 mm 7 mps 731 mmHg 85%
    03:00 +8°C° 0.1 mm 7 mps 731 mmHg 84%
    04:00 +6°C° 0 mm 7 mps 731 mmHg 83%
    05:00 +6°C° 0 mm 7 mps 731 mmHg 83%
    06:00 +6°C° 0 mm 7 mps 731 mmHg 82%
    07:00 +6°C° 0 mm 7 mps 732 mmHg 81%
    08:00 +8°C° 0 mm 7 mps 732 mmHg 80%
    09:00 +7°C° 0 mm 8 mps 733 mmHg 80%
    10:00 +7°C° 0.1 mm 8 mps 733 mmHg 78%
    11:00 +7°C° 0.1 mm 8 mps 734 mmHg 77%
    12:00 +7°C° 0.1 mm 8 mps 734 mmHg 75%
    13:00 +7°C° 0.1 mm 8 mps 735 mmHg 75%
    14:00 +7°C° 0.1 mm 8 mps 736 mmHg 75%
    15:00 +7°C° 0.1 mm 8 mps 736 mmHg 74%
    16:00 +8°C° 0.1 mm 7 mps 737 mmHg 75%
    17:00 +6°C° 0.1 mm 7 mps 737 mmHg 76%
    18:00 +6°C° 0.1 mm 7 mps 738 mmHg 77%
    19:00 +6°C° 0.1 mm 7 mps 739 mmHg 78%
    20:00 +5°C° 0.1 mm 7 mps 739 mmHg 79%
    21:00 +5°C° 0.1 mm 7 mps 740 mmHg 80%
    22:00 +5°C° 0.2 mm 6 mps 740 mmHg 81%
    23:00 +5°C° 0.2 mm 6 mps 741 mmHg 81%

    Day after tomorrow, 26 September, Wednesday

    Time Temperature Precipitation Wind Pressure Humidity
    00:00 +4°C° 0.2 mm 6 mps 741 mmHg 82%
    01:00 +4°C° 0 mm 6 mps 742 mmHg 83%
    02:00 +4°C° 0 mm 6 mps 743 mmHg 83%
    03:00 +3°C° 0 mm 5 mps 743 mmHg 84%
    04:00 +3°C° 0 mm 5 mps 744 mmHg 84%
    05:00 +3°C° 0 mm 5 mps 744 mmHg 84%
    06:00 +2°C° 0 mm 5 mps 745 mmHg 84%
    07:00 +2°C° 0 mm 6 mps 745 mmHg 81%
    08:00 +3°C° 0 mm 6 mps 746 mmHg 78%
    09:00 +3°C° 0 mm 6 mps 747 mmHg 74%
    10:00 +4°C° 0 mm 6 mps 747 mmHg 68%
    11:00 +5°C° 0 mm 6 mps 748 mmHg 63%
    12:00 +7°C° 0 mm 6 mps 748 mmHg 57%
    13:00 +7°C° 0 mm 5 mps 748 mmHg 54%
    14:00 +8°C° 0 mm 5 mps 748 mmHg 51%
    15:00 +8°C° 0 mm 5 mps 748 mmHg 48%
    16:00 +7°C° 0 mm 4 mps 748 mmHg 53%
    17:00 +6°C° 0 mm 4 mps 748 mmHg 57%
    18:00 +7°C° 0 mm 3 mps 748 mmHg 61%
    19:00 +5°C° 0 mm 3 mps 748 mmHg 63%
    20:00 +4°C° 0 mm 4 mps 748 mmHg 64%
    21:00 +4°C° 0 mm 4 mps 748 mmHg 65%
    22:00 +3°C° 0 mm 5 mps 747 mmHg 66%
    23:00 +3°C° 0 mm 5 mps 747 mmHg 66%

    27 September, Thursday

    Time Temperature Precipitation Wind Pressure Humidity
    00:00 +4°C° 0 mm 6 mps 746 mmHg 67%
    01:00 +4°C° 0 mm 7 mps 745 mmHg 68%
    02:00 +4°C° 0 mm 7 mps 744 mmHg 68%
    03:00 +4°C° 0 mm 8 mps 744 mmHg 69%
    04:00 +4°C° 0.6 mm 8 mps 743 mmHg 72%
    05:00 +3°C° 0.6 mm 9 mps 742 mmHg 75%
    06:00 +3°C° 0.6 mm 10 mps 741 mmHg 78%
    07:00 +3°C° 0.7 mm 10 mps 740 mmHg 79%
    08:00 +3°C° 0.7 mm 10 mps 740 mmHg 81%
    09:00 +5°C° 0.7 mm 10 mps 739 mmHg 83%
    10:00 +5°C° 0.7 mm 9 mps 739 mmHg 84%
    11:00 +5°C° 0.7 mm 9 mps 739 mmHg 85%
    12:00 +6°C° 0.7 mm 8 mps 739 mmHg 85%
    13:00 +6°C° 0.2 mm 8 mps 738 mmHg 85%
    14:00 +7°C° 0.2 mm 8 mps 738 mmHg 85%
    15:00 +7°C° 0.2 mm 8 mps 738 mmHg 85%
    16:00 +8°C° 0.3 mm 7 mps 738 mmHg 87%
    17:00 +8°C° 0.3 mm 7 mps 738 mmHg 88%
    18:00 +8°C° 0.3 mm 7 mps 738 mmHg 89%
    19:00 +8°C° 0.6 mm 6 mps 738 mmHg 90%
    20:00 +8°C° 0.6 mm 5 mps 738 mmHg 91%
    21:00 +8°C° 0.6 mm 5 mps 738 mmHg 92%
    22:00 +7°C° 0 mm 4 mps 738 mmHg 93%
    23:00 +7°C° 0 mm 4 mps 739 mmHg 94%

    28 September, Friday

    Time Temperature Precipitation Wind Pressure Humidity
    00:00 +7°C° 0 mm 3 mps 739 mmHg 95%
    01:00 +7°C° 0 mm 3 mps 739 mmHg 94%
    02:00 +7°C° 0 mm 3 mps 739 mmHg 93%
    03:00 +7°C° 0 mm 3 mps 739 mmHg 92%
    04:00 +7°C° 0 mm 3 mps 738 mmHg 91%
    05:00 +7°C° 0 mm 3 mps 738 mmHg 90%
    06:00 +7°C° 0 mm 3 mps 738 mmHg 89%
    07:00 +7°C° 0 mm 4 mps 738 mmHg 86%
    08:00 +8°C° 0 mm 5 mps 737 mmHg 84%
    09:00 +9°C° 0 mm 6 mps 737 mmHg 82%
    10:00 +10°C° 0.2 mm 7 mps 737 mmHg 83%
    11:00 +10°C° 0.2 mm 8 mps 736 mmHg 83%
    12:00 +11°C° 0.2 mm 10 mps 736 mmHg 84%
    13:00 +11°C° 0.2 mm 10 mps 736 mmHg 83%
    14:00 +12°C° 0.2 mm 10 mps 735 mmHg 82%
    15:00 +12°C° 0.2 mm 10 mps 735 mmHg 81%
    16:00 +11°C° 0.6 mm 8 mps 736 mmHg 83%
    17:00 +10°C° 0.6 mm 7 mps 736 mmHg 85%
    18:00 +9°C° 0.6 mm 5 mps 737 mmHg 87%
    19:00 +8°C° 0.2 mm 4 mps 738 mmHg 87%
    20:00 +8°C° 0.2 mm 4 mps 738 mmHg 88%
    21:00 +8°C° 0.2 mm 3 mps 739 mmHg 88%
    22:00 +7°C° 0 mm 3 mps 740 mmHg 89%
    23:00 +6°C° 0 mm 2 mps 740 mmHg 91%

    29 September, Saturday

    Time Temperature Precipitation Wind Pressure Humidity
    00:00 +6°C° 0 mm 2 mps 741 mmHg 92%
    01:00 +5°C° 0 mm 2 mps 741 mmHg 91%
    02:00 +6°C° 0 mm 1 mps 741 mmHg 91%
    03:00 +5°C° 0 mm 1 mps 742 mmHg 90%
    04:00 +5°C° 0 mm 1 mps 742 mmHg 90%
    05:00 +5°C° 0 mm 1 mps 742 mmHg 89%
    06:00 +5°C° 0 mm 1 mps 743 mmHg 89%
    07:00 +6°C° 0 mm 1 mps 743 mmHg 85%
    08:00 +7°C° 0 mm 1 mps 743 mmHg 81%
    09:00 +8°C° 0 mm 1 mps 743 mmHg 77%
    10:00 +8°C° 0 mm 2 mps 743 mmHg 71%
    11:00 +9°C° 0 mm 2 mps 744 mmHg 66%
    12:00 +10°C° 0 mm 2 mps 744 mmHg 60%
    13:00 +10°C° 0 mm 2 mps 743 mmHg 59%
    14:00 +10°C° 0 mm 2 mps 743 mmHg 58%
    15:00 +12°C° 0 mm 2 mps 743 mmHg 57%
    16:00 +10°C° 0.1 mm 2 mps 743 mmHg 62%
    17:00 +9°C° 0.1 mm 2 mps 743 mmHg 67%
    18:00 +8°C° 0.1 mm 2 mps 743 mmHg 71%
    19:00 +8°C° 0.4 mm 2 mps 744 mmHg 74%
    20:00 +8°C° 0.4 mm 2 mps 744 mmHg 77%
    21:00 +7°C° 0.4 mm 2 mps 744 mmHg 80%
    22:00 +7°C° 0.2 mm 2 mps 745 mmHg 81%
    23:00 +7°C° 0.2 mm 2 mps 745 mmHg 82%
    Show more